Satellite: NOAA-14 Catalog number: 23455 Epoch time: 14142.31109716 Element set: 758 Inclination: 098.7787 deg RA of node: 226.2057 deg Eccentricity: 0.0010627 Arg of perigee: 112.9860 deg Mean anomaly: 287.3317 deg Mean motion: 14.13973186 rev/day Decay rate: -3.1e-07 rev/day^2 Epoch rev: 29 Checksum: 298
Satellite: NOAA-15 Catalog number: 25338 Epoch time: 14142.44201936 Element set: 191 Inclination: 098.7507 deg RA of node: 136.3530 deg Eccentricity: 0.0010074 Arg of perigee: 217.0528 deg Mean anomaly: 297.8754 deg Mean motion: 14.25420152 rev/day Decay rate: 1.64e-06 rev/day^2 Epoch rev: 83317 Checksum: 284
Satellite: RESURS Catalog number: 25394 Epoch time: 14141.81120738 Element set: 660 Inclination: 098.4100 deg RA of node: 107.2964 deg Eccentricity: 0.0001281 Arg of perigee: 037.7698 deg Mean anomaly: 021.3286 deg Mean motion: 14.24394692 rev/day Decay rate: -1.4e-07 rev/day^2 Epoch rev: 82456 Checksum: 286
Satellite: FENGYUN1 Catalog number: 25730 Epoch time: 14142.48467626 Element set: 151 Inclination: 098.9107 deg RA of node: 103.7381 deg Eccentricity: 0.0025498 Arg of perigee: 179.3939 deg Mean anomaly: 324.7727 deg Mean motion: 14.11873528 rev/day Decay rate: 5.09e-06 rev/day^2 Epoch rev: 77389 Checksum: 335
Satellite: OKEAN-0 Catalog number: 25860 Epoch time: 14142.80665211 Element set: 256 Inclination: 098.0400 deg RA of node: 106.8260 deg Eccentricity: 0.0001981 Arg of perigee: 114.3098 deg Mean anomaly: 304.6100 deg Mean motion: 14.75255150 rev/day Decay rate: 4.55e-06 rev/day^2 Epoch rev: 79841 Checksum: 266
Satellite: NOAA-16 Catalog number: 26536 Epoch time: 14142.24456815 Element set: 681 Inclination: 098.9924 deg RA of node: 202.4927 deg Eccentricity: 0.0009620 Arg of perigee: 255.9468 deg Mean anomaly: 145.9256 deg Mean motion: 14.13042438 rev/day Decay rate: 7.0e-07 rev/day^2 Epoch rev: 70445 Checksum: 314
Satellite: NOAA-17 Catalog number: 27453 Epoch time: 14142.41941687 Element set: 585 Inclination: 098.3128 deg RA of node: 143.4897 deg Eccentricity: 0.0010584 Arg of perigee: 246.2233 deg Mean anomaly: 113.7838 deg Mean motion: 14.24746569 rev/day Decay rate: 6.1e-07 rev/day^2 Epoch rev: 61901 Checksum: 320
Satellite: NOAA-18 Catalog number: 28654 Epoch time: 14142.45956977 Element set: 78 Inclination: 099.1456 deg RA of node: 121.4458 deg Eccentricity: 0.0013705 Arg of perigee: 340.6178 deg Mean anomaly: 128.8450 deg Mean motion: 14.12018128 rev/day Decay rate: 5.1e-07 rev/day^2 Epoch rev: 46393 Checksum: 315
Satellite: NOAA-19 Catalog number: 33591 Epoch time: 14142.48327124 Element set: 240 Inclination: 098.9430 deg RA of node: 087.5997 deg Eccentricity: 0.0013977 Arg of perigee: 187.4271 deg Mean anomaly: 282.8894 deg Mean motion: 14.11713092 rev/day Decay rate: 2.49e-06 rev/day^2 Epoch rev: 27236 Checksum: 330
/EX SB KEPS @ AMSAT $ORB14142.M Orbital Elements 14142.MISC
HR AMSAT ORBITAL ELEMENTS FOR MANNED AND MISCELLANEOUS SATELLITES FROM WA5QGD FORT WORTH,TX May 22, 2014 BID: ORB14142.M TO ALL RADIO AMATEURS BT
Satellite: HUBBLE Catalog number: 20580 Epoch time: 14142.47770832 Element set: 18 Inclination: 028.4692 deg RA of node: 206.1367 deg Eccentricity: 0.0003235 Arg of perigee: 015.9477 deg Mean anomaly: 111.9420 deg Mean motion: 15.05386275 rev/day Decay rate: 1.840e-05 rev/day^2 Epoch rev: 12084 Checksum: 272
Satellite: ISS Catalog number: 25544 Epoch time: 14142.72054242 Element set: 341 Inclination: 051.6496 deg RA of node: 225.8355 deg Eccentricity: 0.0003409 Arg of perigee: 028.5772 deg Mean anomaly: 107.4428 deg Mean motion: 15.50479804 rev/day Decay rate: 1.5094e-04 rev/day^2 Epoch rev: 88737 Checksum: 302
Satellite: CO-58 Catalog number: 28895 Epoch time: 14142.54297696 Element set: 773 Inclination: 097.8368 deg RA of node: 345.7415 deg Eccentricity: 0.0018873 Arg of perigee: 092.8702 deg Mean anomaly: 267.4661 deg Mean motion: 14.61864573 rev/day Decay rate: 6.57e-06 rev/day^2 Epoch rev: 45650 Checksum: 372
Satellite: FALCON Catalog number: 30776 Epoch time: 14141.78466969 Element set: 871 Inclination: 035.4291 deg RA of node: 277.1842 deg Eccentricity: 0.0001212 Arg of perigee: 053.8021 deg Mean anomaly: 100.1028 deg Mean motion: 15.16054022 rev/day Decay rate: 6.850e-05 rev/day^2 Epoch rev: 39672 Checksum: 277
Satellite: MAST Catalog number: 31126 Epoch time: 14142.83370382 Element set: 50 Inclination: 097.9118 deg RA of node: 125.0521 deg Eccentricity: 0.0093498 Arg of perigee: 073.8900 deg Mean anomaly: 355.3566 deg Mean motion: 14.55252291 rev/day Decay rate: 6.25e-06 rev/day^2 Epoch rev: 37670 Checksum: 289
Satellite: CAPE1 Catalog number: 31130 Epoch time: 14142.41270424 Element set: 56 Inclination: 097.9326 deg RA of node: 121.2751 deg Eccentricity: 0.0100615 Arg of perigee: 092.7156 deg Mean anomaly: 268.5563 deg Mean motion: 14.54402918 rev/day Decay rate: 9.64e-06 rev/day^2 Epoch rev: 37606 Checksum: 277
Satellite: COMPASS Catalog number: 32787 Epoch time: 14142.13971870 Element set: 935 Inclination: 097.7044 deg RA of node: 196.4143 deg Eccentricity: 0.0012369 Arg of perigee: 264.8189 deg Mean anomaly: 095.1616 deg Mean motion: 14.87801497 rev/day Decay rate: 2.873e-05 rev/day^2 Epoch rev: 32831 Checksum: 332
Satellite: AAUSAT2 Catalog number: 32788 Epoch time: 14142.15620794 Element set: 922 Inclination: 097.7055 deg RA of node: 197.3863 deg Eccentricity: 0.0011789 Arg of perigee: 262.9351 deg Mean anomaly: 097.0525 deg Mean motion: 14.88502257 rev/day Decay rate: 3.034e-05 rev/day^2 Epoch rev: 32837 Checksum: 324
Satellite: DO-64 Catalog number: 32789 Epoch time: 14142.14981943 Element set: 961 Inclination: 097.7235 deg RA of node: 203.6333 deg Eccentricity: 0.0011063 Arg of perigee: 247.0346 deg Mean anomaly: 173.7757 deg Mean motion: 14.93167472 rev/day Decay rate: 4.177e-05 rev/day^2 Epoch rev: 32861 Checksum: 325
Satellite: CO-66 Catalog number: 32791 Epoch time: 14142.14024418 Element set: 918 Inclination: 097.7039 deg RA of node: 195.2338 deg Eccentricity: 0.0012904 Arg of perigee: 268.9183 deg Mean anomaly: 091.0555 deg Mean motion: 14.86486223 rev/day Decay rate: 2.356e-05 rev/day^2 Epoch rev: 32818 Checksum: 323
Satellite: RS-30 Catalog number: 32953 Epoch time: 14142.71636748 Element set: 942 Inclination: 082.5042 deg RA of node: 217.0443 deg Eccentricity: 0.0018638 Arg of perigee: 208.0095 deg Mean anomaly: 151.9992 deg Mean motion: 12.43047246 rev/day Decay rate: 1.0e-07 rev/day^2 Epoch rev: 27209 Checksum: 287
Satellite: METEOR-M Catalog number: 35865 Epoch time: 14142.75249599 Element set: 556 Inclination: 098.5508 deg RA of node: 190.9331 deg Eccentricity: 0.0002667 Arg of perigee: 149.5398 deg Mean anomaly: 210.5932 deg Mean motion: 14.21922492 rev/day Decay rate: 2.1e-07 rev/day^2 Epoch rev: 24272 Checksum: 315
Satellite: RS-38 Catalog number: 35869 Epoch time: 14142.74961201 Element set: 480 Inclination: 098.5453 deg RA of node: 190.7388 deg Eccentricity: 0.0005320 Arg of perigee: 157.5965 deg Mean anomaly: 338.0270 deg Mean motion: 14.22209239 rev/day Decay rate: 3.3e-07 rev/day^2 Epoch rev: 24275 Checksum: 308
Satellite: JUGNU Catalog number: 37839 Epoch time: 14142.11493225 Element set: 621 Inclination: 019.9622 deg RA of node: 052.9502 deg Eccentricity: 0.0019126 Arg of perigee: 057.7566 deg Mean anomaly: 073.0113 deg Mean motion: 14.12306849 rev/day Decay rate: 4.13e-06 rev/day^2 Epoch rev: 13486 Checksum: 277
Satellite: SRMSAT Catalog number: 37841 Epoch time: 14142.22329142 Element set: 626 Inclination: 019.9727 deg RA of node: 071.0933 deg Eccentricity: 0.0011870 Arg of perigee: 359.9624 deg Mean anomaly: 165.2775 deg Mean motion: 14.10349589 rev/day Decay rate: 3.87e-06 rev/day^2 Epoch rev: 13469 Checksum: 314
Satellite: RAX-2 Catalog number: 37853 Epoch time: 14142.00855035 Element set: 810 Inclination: 101.7162 deg RA of node: 159.1733 deg Eccentricity: 0.0217952 Arg of perigee: 132.4418 deg Mean anomaly: 283.2606 deg Mean motion: 14.89099479 rev/day Decay rate: 6.566e-05 rev/day^2 Epoch rev: 13876 Checksum: 315
Satellite: AUBIESAT Catalog number: 37854 Epoch time: 14142.01818801 Element set: 792 Inclination: 101.7201 deg RA of node: 160.9561 deg Eccentricity: 0.0215909 Arg of perigee: 129.7323 deg Mean anomaly: 286.1569 deg Mean motion: 14.90400790 rev/day Decay rate: 6.982e-05 rev/day^2 Epoch rev: 13881 Checksum: 302
Satellite: HRBE Catalog number: 37855 Epoch time: 14142.67896117 Element set: 800 Inclination: 101.7200 deg RA of node: 161.3362 deg Eccentricity: 0.0218058 Arg of perigee: 129.0379 deg Mean anomaly: 352.3459 deg Mean motion: 14.89729968 rev/day Decay rate: 7.650e-05 rev/day^2 Epoch rev: 13888 Checksum: 329
Satellite: RS-39 Catalog number: 38051 Epoch time: 14142.81433896 Element set: 562 Inclination: 051.6280 deg RA of node: 350.2842 deg Eccentricity: 0.0004824 Arg of perigee: 117.3040 deg Mean anomaly: 352.0816 deg Mean motion: 15.57940632 rev/day Decay rate: 6.3485e-04 rev/day^2 Epoch rev: 13015 Checksum: 287
Satellite: E-STAR Catalog number: 38079 Epoch time: 14142.82787965 Element set: 859 Inclination: 069.4552 deg RA of node: 058.3400 deg Eccentricity: 0.0386866 Arg of perigee: 031.6716 deg Mean anomaly: 070.7355 deg Mean motion: 15.03987417 rev/day Decay rate: 1.30527e-03 rev/day^2 Epoch rev: 11964 Checksum: 343
Satellite: GOLIAT Catalog number: 38085 Epoch time: 14142.85081451 Element set: 61 Inclination: 069.4562 deg RA of node: 064.7705 deg Eccentricity: 0.0409504 Arg of perigee: 034.8833 deg Mean anomaly: 066.4837 deg Mean motion: 14.98309749 rev/day Decay rate: 1.22403e-03 rev/day^2 Epoch rev: 11947 Checksum: 315
